Snowfall_Accumulation
0.0 0.0 0.0 0.0 0.0 0.0 0.0 0.0 0.0 0.0 0.0 0.0 0.0 0.0 0.0 0.0 0.0 0.0 0.0 0.0 0.0 0.0 0.0 0.0 0.0 0.0 0.0 0.0 0.0 0.0 0.0 0.0 0.0 0.0 0.0 0.0 0.0 0.0 0.0 0.0 0.0 0.0 0.0
0.0 0.0 0.0 0.0 0.0 0.0 0.0 0.0 0.0 0.0 0.0 0.0 0.0 0.0 0.0 0.0 0.0 0.0 0.0 0.0 0.0 0.0 0.0 0.0 0.0 0.0 0.0 0.0 0.0 0.0 0.0 0.0 0.0 0.0 0.0 0.0 0.0 0.0 0.0 0.0 0.0 0.0 0.0
0.0 0.0 0.0 0.0 0.0 0.0 0.0 0.0 0.0 0.0 0.0 0.0 0.0 0.0 0.0 0.0 0.0 0.0 0.0 0.0 0.0 0.0 0.0 0.0 0.0 0.0 0.0 0.0 0.0 0.0 0.0 0.0 0.0 0.0 0.0 0.0 0.0 0.0 0.0 0.0 0.0 0.0 0.0
0.0 0.0 0.0 0.0 0.0 0.0 0.0 0.0 0.0 0.0 0.0 0.0 0.0 0.0 0.0 0.0 0.0 0.0 0.0 0.0 0.0 0.0 0.0 0.0 0.0 0.0 0.0 0.0 0.0 0.0 0.0 0.0 0.0 0.0 0.0 0.0 0.0 0.0 0.0 0.0 0.0 0.0 0.0
0.0 0.0 0.0 0.0 0.0 0.0 0.0 0.0 0.0 0.0 0.0 0.0 0.0 0.0 0.0 0.0 0.0 0.0 0.0 0.0 0.0 0.0 0.0 0.0 0.0 0.0 0.0 0.0 0.0 0.0 0.0 0.0 0.0 0.0 0.0 0.0 0.0 0.0 0.0 0.0 0.0 0.0 0.0
0.0 0.0 0.0 0.0 0.0 0.0 0.0 0.0 0.0 0.0 0.0 0.0 0.0 0.0 0.0 0.0 0.0 0.0 0.0 0.0 0.0 0.0 0.0 0.0 0.0 0.0 0.0 0.0 0.0 0.0 0.0 0.0 0.0 0.0 0.0 0.0 0.0 0.0 0.0 0.0 0.0 0.0 0.0
0.0 0.0 0.0 0.0 0.0 0.0 0.0 0.0 0.0 0.0 0.0 0.0 0.0 0.0 0.0 0.0 0.0 0.0 0.0 0.0 0.0 0.0 0.0 0.0 0.0 0.0 0.0 0.0 0.0 0.0 0.0 0.0 0.0 0.0 0.0 0.0 0.0 0.0 0.0 0.0 0.0 0.0 0.0
0.0 0.0 0.0 0.0 0.0 0.0 0.0 0.0 0.0 0.0 0.0 0.0 0.0 0.0 0.0 0.0 0.0 0.0 0.0 0.0 0.0 0.0 0.0 0.0 0.0 0.0 0.0 0.0 0.0 0.0 0.0 0.0 0.0 0.0 0.0 0.0 0.0 0.0 0.0 0.0 0.0 0.0 0.0
0.0 0.0 0.0 0.0 0.0 0.0 0.0 0.0 0.0 0.0 0.2 0.0 0.0 0.3 0.3 0.0 0.0 0.0 0.0 0.0 0.0 0.0 0.0 0.0 0.0 0.0 0.0 0.0 0.0 0.0 0.0 0.0 0.0 0.0 0.0 0.0 0.0 0.0 0.0 0.0 0.0 0.0 0.0
0.0 0.0 0.0 0.0 0.0 0.0 0.0 0.0 0.0 0.1 0.1 0.2 0.1 0.0 0.2 0.4 0.4 0.1 0.0 0.0 0.0 0.0 0.0 0.0 0.0 0.0 0.0 0.0 0.0 0.0 0.0 0.0 0.0 0.0 0.0 0.0 0.0 0.0 0.0 0.0 0.0 0.0 0.0
0.0 0.0 0.0 0.0 0.0 0.0 0.0 0.1 0.1 0.0 0.1 0.3 0.3 0.2 0.1 0.0 0.0 0.3 0.0 0.0 0.0 0.0 0.0 0.0 0.0 0.0 0.0 0.0 0.0 0.0 0.0 0.0 0.0 0.0 0.0 0.0 0.0 0.0 0.0 0.0 0.0 0.0 0.0
0.0 0.0 0.0 0.0 0.0 0.0 0.1 0.0 0.2 0.2 0.2 0.1 0.3 0.2 0.5 0.6 0.3 0.7 0.3 0.0 0.0 0.0 0.0 0.0 0.0 0.0 0.0 0.0 0.0 0.0 0.0 0.0 0.0 0.0 0.0 0.0 0.0 0.0 0.0 0.0 0.0 0.0 0.0
0.1 0.0 0.0 0.1 0.0 0.1 0.1 0.2 0.1 0.2 0.3 0.4 0.4 0.4 0.2 0.3 0.2 0.2 0.3 0.2 0.1 0.0 0.0 0.0 0.0 0.0 0.0 0.0 0.0 0.0 0.0 0.0 0.0 0.0 0.0 0.0 0.0 0.0 0.0 0.0 0.0 0.0 0.0
0.5 0.4 0.3 0.1 0.1 0.4 0.1 0.2 0.3 0.3 0.4 0.7 0.4 0.4 0.5 0.3 0.1 0.1 0.2 0.5 0.6 0.0 0.0 0.0 0.0 0.0 0.0 0.0 0.0 0.0 0.0 0.0 0.0 0.0 0.0 0.0 0.0 0.0 0.0 0.0 0.0 0.0 0.0
0.8 0.6 0.4 0.3 0.2 0.3 0.3 0.2 0.3 0.5 0.3 0.8 0.9 0.9 0.9 0.6 0.4 0.1 0.1 0.7 3.1 2.6 0.2 0.0 0.0 0.0 0.0 0.0 0.0 0.0 0.0 0.0 0.0 0.0 0.0 0.0 0.0 0.0 0.0 0.0 0.0 0.0 0.0
1.6 1.4 0.8 0.8 0.6 0.8 0.4 0.5 0.6 0.9 0.7 0.7 0.9 0.8 0.7 0.9 0.7 1.3 0.8 0.2 1.0 2.2 1.0 0.0 0.0 0.0 0.0 0.0 0.0 0.0 0.0 0.0 0.0 0.0 0.0 0.0 0.0 0.0 0.0 0.0 0.0 0.0 0.0
1.9 1.7 1.7 1.7 2.0 1.8 1.9 1.5 1.3 1.4 1.0 0.8 0.7 1.2 1.1 0.9 1.1 1.3 1.7 1.2 0.6 0.9 0.5 0.2 0.0 0.0 0.0 0.0 0.0 0.0 0.0 0.0 0.0 0.0 0.0 0.0 0.0 0.0 0.0 0.0 0.0 0.0 0.0
2.3 2.3 2.3 1.6 1.6 1.7 1.9 2.0 2.1 1.9 1.8 1.6 1.3 1.1 1.2 1.1 1.3 1.9 2.0 1.9 1.3 0.9 0.0 0.2 0.1 0.2 0.3 0.7 1.1 0.0 0.0 0.0 0.0 0.0 0.0 0.0 0.0 0.0 0.0 0.0 0.0 0.0 0.0
2.8 2.0 2.3 2.5 2.0 1.8 1.8 1.8 2.0 1.8 1.7 1.6 1.8 1.8 2.1 1.3 0.9 1.8 2.9 3.2 2.0 0.9 1.5 1.9 1.0 0.5 0.6 0.4 0.5 0.4 0.0 0.0 0.0 0.0 0.0 0.0 0.0 0.0 0.0 0.0 0.0 0.0 0.0
0.9 1.2 1.8 3.0 3.0 2.0 1.6 2.0 1.5 1.4 1.6 2.1 2.2 2.0 2.6 2.3 2.5 1.9 2.1 3.2 3.1 2.7 2.1 2.5 2.3 1.3 0.9 0.7 0.2 0.4 0.3 0.3 0.3 0.0 0.0 0.0 0.1 0.0 0.0 0.0 0.0 0.0 0.0
1.3 0.5 0.0 0.3 0.4 1.1 1.9 1.5 1.7 1.3 1.0 1.7 1.8 1.2 1.5 2.5 2.6 3.0 2.7 2.7 2.5 2.9 2.6 2.9 2.9 2.4 2.3 1.7 1.4 1.1 0.9 0.2 0.0 0.2 0.3 0.3 0.0 0.1 0.4 0.0 0.0 0.0 0.0
1.2 1.6 2.5 2.0 1.6 1.9 0.8 0.8 1.1 1.4 1.1 1.1 1.1 1.3 1.2 0.9 1.2 1.5 2.0 1.8 1.4 1.9 3.1 2.4 2.1 2.4 2.3 2.1 2.2 1.6 1.9 1.7 1.1 0.5 0.7 0.3 0.1 0.2 0.4 0.0 0.5 0.3 0.0
5.2 4.1 5.3 3.3 4.0 4.7 4.3 2.3 1.1 0.6 0.3 0.6 0.6 0.8 0.8 0.5 0.1 0.2 0.0 0.0 0.1 0.3 0.7 1.0 1.5 1.3 1.1 1.1 0.7 0.6 0.7 1.0 1.0 0.1 0.6 0.5 0.1 0.1 0.1 0.0 0.0 0.0 0.0
2.9 2.3 3.2 4.1 4.9 9.2 7.5 12.3 13.0 5.2 5.1 6.4 7.7 6.3 1.2 1.2 1.8 0.4 0.7 0.5 0.2 0.2 0.2 0.2 0.4 0.5 1.7 0.3 0.3 0.3 3.3 2.6 4.3 2.3 2.1 2.6 1.0 2.1 1.8 1.4 2.2 0.8 0.0
11.6 10.5 7.7 7.0 6.2 2.6 5.2 3.2 4.9 8.8 14.4 13.9 6.8 7.1 6.8 10.3 10.6 8.0 3.1 1.3 1.3 1.2 1.6 5.0 0.7 3.2 2.1 3.1 3.0 3.7 2.7 4.2 3.1 2.6 2.0 1.9 1.1 5.5 8.0 7.7 7.3 5.8 4.2
10.7 11.2 9.0 9.9 9.3 9.0 7.3 8.3 5.4 4.3 4.6 4.2 6.1 9.4 7.8 7.9 9.3 7.4 2.5 6.4 3.4 2.4 6.4 3.3 5.5 5.0 4.6 4.5 2.4 6.3 3.9 7.7 7.3 8.0 8.2 9.0 7.8 8.7 7.8 5.7 5.3 4.6 3.6